Pittsfield, MA

6:27 AM EDT on October 01, 2016 (GMT -0400)
Pittsfield Municipal

Weather History for KPSF - March, 2014

Change the Weather History Date:

Thursday, March 13, 2014

  Actual Average Record
Temperature  
Mean Temperature 12 °F 31 °F  
Max Temperature 15 °F 41 °F 68 °F (2012)
Min Temperature 8 °F 21 °F 2 °F (1941)
Degree Days  
Heating Degree Days 52 34  
Month to date heating degree days 470  
Since 1 July heating degree days 5850  
Cooling Degree Days 0 0  
Month to date cooling degree days 0  
Year to date cooling degree days 0  
Moisture  
Dew Point 4 °F    
Average Humidity 73    
Maximum Humidity 84    
Minimum Humidity 62    
Precipitation  
Precipitation 0.00 in 0.08 in 1.34 in (1953)
Month to date precipitation 1.08  
Year to date precipitation 6.68  
Sea Level Pressure  
Sea Level Pressure 29.49 in    
Wind  
Wind Speed 16 mph (NW)    
Max Wind Speed 26 mph    
Max Gust Speed 41 mph    
Visibility 2 miles    
Events Fog , Snow    
T = Trace of Precipitation, MM = Missing Value Source: NWS Daily Summary

Daily Weather History Graph

Daily Weather History Graph

Search for Another Location

Airport or City:

Trip Planner

Search our weather history database for the weather conditions in past years. The results will help you decide how hot, cold, wet, or windy it might be!

Date:

Astronomy

Mar. 13, 2014 Rise Set
Actual Time 7:08 AM EDT 6:57 PM EDT
Civil Twilight 6:40 AM EDT 7:25 PM EDT
Nautical Twilight 6:08 AM EDT 7:57 PM EDT
Astronomical Twilight 5:35 AM EDT 8:31 PM EDT
Moon 4:18 PM EDT (3/13) 5:16 AM EDT (3/13)
Length of Visible Light 12h 44m
Length of Day
11h 48m
Waxing Gibbous, 91% of the Moon is Illuminated
Mar 13
Waxing Gibbous
Mar 16
Full
Mar 23
Last Quarter
Mar 30
New
Apr 7
First Quarter

Hourly Weather History & Observations

Time (EDT) Temp. Windchill Dew Point Humidity Pressure Visibility Wind Dir Wind Speed Gust Speed Precip Events Conditions
12:04 AM 17.1 °F 1.5 °F 12.0 °F 81% 29.15 in 1.5 mi NW 17.3 mph 31.1 mph 0.00 in Snow Light Snow
12:21 AM 16.0 °F 3.6 °F 10.9 °F 81% 29.15 in 1.2 mi NNW 10.4 mph 23.0 mph 0.00 in Snow Light Snow
12:30 AM 16.0 °F 0.1 °F 10.9 °F 81% 29.15 in 2.0 mi NW 17.3 mph 24.2 mph 0.00 in Snow Light Snow
12:44 AM 16.0 °F -0.4 °F 10.0 °F 77% 29.17 in 1.8 mi NW 18.4 mph 27.6 mph 0.00 in Snow Light Snow
12:54 AM 16.0 °F 1.1 °F 10.0 °F 77% 29.21 in 1.8 mi WNW 15.0 mph 29.9 mph 0.00 in Snow Light Snow
1:51 AM 14.0 °F -0.8 °F 8.6 °F 79% 29.19 in 2.0 mi NW 13.8 mph 21.9 mph 0.00 in Snow Light Snow
1:54 AM 14.0 °F -1.4 °F 9.0 °F 80% 29.24 in 2.0 mi NNW 15.0 mph 24.2 mph 0.00 in Snow Light Snow
2:03 AM 15.1 °F 1.1 °F 9.0 °F 77% 29.21 in 1.8 mi NNW 12.7 mph 24.2 mph 0.00 in Snow Light Snow
2:12 AM 14.0 °F -2.0 °F 8.1 °F 77% 29.20 in 2.0 mi NNW 16.1 mph 33.4 mph 0.00 in Snow Light Snow
2:26 AM 14.0 °F -3.0 °F 7.0 °F 74% 29.20 in 2.5 mi NNW 18.4 mph 34.5 mph 0.00 in Snow Light Snow
2:54 AM 14.0 °F -4.3 °F 7.0 °F 74% 29.25 in 2.0 mi NNW 21.9 mph 35.7 mph 0.00 in Snow Light Snow
3:33 AM 12.9 °F -5.3 °F 5.0 °F 71% 29.22 in 2.5 mi North 20.7 mph 41.4 mph 0.00 in Snow Light Snow
3:54 AM 12.9 °F -2.2 °F 5.0 °F 71% 29.25 in 3.0 mi North 13.8 mph 28.8 mph 0.00 in Snow Light Snow
4:42 AM 10.9 °F -8.8 °F 3.9 °F 73% 29.22 in 2.0 mi North 23.0 mph 33.4 mph 0.00 in Snow Light Snow
4:54 AM 10.9 °F -5.4 °F 3.9 °F 73% 29.27 in 1.8 mi NNW 15.0 mph 32.2 mph 0.00 in Snow Light Snow
5:00 AM 10.9 °F -2.6 °F 3.9 °F 73% 29.23 in 2.0 mi NNW 10.4 mph 26.5 mph 0.00 in Snow Light Snow
5:17 AM 10.9 °F -7.0 °F 3.0 °F 70% 29.26 in 1.8 mi NNW 18.4 mph 34.5 mph 0.00 in Snow Light Snow
5:27 AM 10.9 °F -4.1 °F 3.0 °F 70% 29.27 in 2.5 mi NNW 12.7 mph 31.1 mph 0.00 in Snow Light Snow
5:35 AM 10.0 °F -1.9 °F 3.0 °F 73% 29.27 in 3.0 mi NNW 8.1 mph 26.5 mph 0.00 in Snow Light Snow
5:51 AM 10.4 °F -8.2 °F 3.2 °F 73% 29.29 in 2.5 mi North 19.6 mph 31.1 mph 0.00 in Snow Light Snow
5:54 AM 10.0 °F -4.5 °F 3.0 °F 73% 29.34 in 3.0 mi North 11.5 mph 31.1 mph 0.00 in Snow Light Snow
6:49 AM 8.6 °F -7.7 °F 3.2 °F 79% 29.33 in 2.5 mi North 13.8 mph 20.7 mph 0.00 in Snow Light Snow
6:54 AM 9.0 °F -7.3 °F 3.0 °F 77% 29.38 in 2.5 mi NNW 13.8 mph 20.7 mph 0.00 in Snow Light Snow
7:28 AM 9.0 °F -7.3 °F 1.9 °F 73% 29.34 in 1.8 mi NNW 13.8 mph 23.0 mph 0.00 in Snow Light Snow
7:54 AM 9.0 °F -4.2 °F 3.0 °F 77% 29.41 in 1.2 mi NNW 9.2 mph 21.9 mph 0.00 in Snow Light Snow
8:16 AM 9.0 °F -6.6 °F 3.9 °F 80% 29.37 in 0.8 mi NW 12.7 mph - 0.00 in Snow Light Snow
8:39 AM 9.0 °F -7.3 °F 3.9 °F 80% 29.38 in 0.2 mi NNW 13.8 mph 21.9 mph 0.00 in Snow Heavy Snow
8:54 AM 9.0 °F -6.6 °F 5.0 °F 84% 29.44 in 0.2 mi NW 12.7 mph - 0.00 in Fog , Snow Light Snow
9:18 AM 9.0 °F -8.5 °F 3.9 °F 80% 29.40 in 0.5 mi NW 16.1 mph 25.3 mph 0.00 in Snow Snow
9:32 AM 9.0 °F -10.5 °F 1.9 °F 73% 29.41 in 0.8 mi NW 20.7 mph 31.1 mph 0.00 in Snow Light Snow
9:46 AM 9.0 °F -10.0 °F 3.0 °F 77% 29.42 in 0.2 mi NW 19.6 mph 28.8 mph 0.00 in Snow Heavy Snow
9:54 AM 9.0 °F -9.5 °F 3.0 °F 77% 29.49 in 0.2 mi WNW 18.4 mph 28.8 mph 0.00 in Snow Heavy Snow
10:16 AM 9.0 °F -5.9 °F 5.0 °F 84% 29.43 in 0.2 mi NW 11.5 mph - 0.00 in Fog , Snow Light Snow
10:32 AM 9.0 °F -9.0 °F 3.0 °F 77% 29.44 in 0.2 mi NW 17.3 mph 27.6 mph 0.00 in Snow Heavy Snow
10:54 AM 10.0 °F -8.1 °F 3.9 °F 76% 29.52 in 0.2 mi NW 18.4 mph 28.8 mph 0.00 in Snow Heavy Snow
11:26 AM 10.0 °F -9.1 °F 5.0 °F 80% 29.46 in 0.2 mi WNW 20.7 mph 31.1 mph 0.00 in Snow Heavy Snow
11:54 AM 10.0 °F -8.1 °F 3.9 °F 76% 29.55 in 0.2 mi WNW 18.4 mph 27.6 mph 0.00 in Snow Heavy Snow
12:06 PM 10.0 °F -9.5 °F 3.0 °F 73% 29.48 in 0.2 mi NW 21.9 mph 34.5 mph 0.00 in Snow Heavy Snow
12:40 PM 9.0 °F -11.0 °F 3.9 °F 80% 29.50 in 0.2 mi WNW 21.9 mph 35.7 mph 0.00 in Snow Heavy Snow
12:54 PM 10.0 °F -8.1 °F 5.0 °F 80% 29.59 in 0.2 mi WNW 18.4 mph 31.1 mph 0.00 in Snow Heavy Snow
1:12 PM 10.0 °F -8.6 °F 3.0 °F 73% 29.52 in 0.5 mi West 19.6 mph 29.9 mph 0.00 in Snow Snow
1:31 PM 10.0 °F -7.1 °F 3.9 °F 76% 29.53 in 0.2 mi WNW 16.1 mph 28.8 mph 0.00 in Snow Heavy Snow
1:41 PM 10.0 °F -6.5 °F 3.9 °F 76% 29.53 in 0.5 mi WNW 15.0 mph 25.3 mph 0.00 in Snow Snow
1:54 PM 10.9 °F -4.7 °F 3.9 °F 73% 29.61 in 0.8 mi WNW 13.8 mph 25.3 mph 0.00 in Snow Light Snow
2:01 PM 10.9 °F -4.7 °F 5.0 °F 77% 29.53 in 0.5 mi WNW 13.8 mph 28.8 mph 0.00 in Snow Snow
2:31 PM 10.0 °F -10.0 °F 3.9 °F 76% 29.55 in 0.2 mi WNW 23.0 mph 33.4 mph 0.00 in Snow Heavy Snow
2:41 PM 10.0 °F -8.1 °F 3.9 °F 76% 29.55 in 0.5 mi WNW 18.4 mph 32.2 mph 0.00 in Snow Snow
2:54 PM 10.9 °F -5.4 °F 3.9 °F 73% 29.64 in 0.5 mi WNW 15.0 mph 31.1 mph 0.00 in Snow Snow
3:54 PM 10.9 °F -7.0 °F 3.9 °F 73% 29.68 in 0.8 mi WNW 18.4 mph 25.3 mph 0.00 in Snow Light Snow
4:08 PM 12.0 °F -6.5 °F 5.0 °F 73% 29.61 in 1.2 mi West 20.7 mph 26.5 mph 0.00 in Snow Light Snow
4:25 PM 12.0 °F -4.0 °F 3.9 °F 70% 29.62 in 3.0 mi West 15.0 mph 21.9 mph 0.00 in   Haze
4:46 PM 12.0 °F -6.0 °F 3.9 °F 70% 29.63 in 1.8 mi WNW 19.6 mph 28.8 mph 0.00 in   Haze
4:54 PM 12.0 °F -2.7 °F 3.9 °F 70% 29.72 in 2.0 mi WNW 12.7 mph 32.2 mph 0.00 in   Haze
5:02 PM 12.0 °F -7.3 °F 3.9 °F 70% 29.65 in 3.0 mi WNW 23.0 mph 31.1 mph N/A   Haze
5:05 PM 12.0 °F -6.0 °F 3.9 °F 70% 29.65 in 1.8 mi WNW 19.6 mph 31.1 mph N/A   Haze
5:18 PM 12.0 °F -4.0 °F 3.0 °F 67% 29.66 in 2.0 mi NW 15.0 mph 28.8 mph N/A   Haze
5:34 PM 12.0 °F -5.1 °F 3.0 °F 67% 29.67 in 5.0 mi WNW 17.3 mph 26.5 mph N/A   Haze
5:52 PM 12.2 °F -7.5 °F 1.4 °F 62% 29.68 in 1.2 mi WNW 24.2 mph 33.4 mph N/A Snow Blowing Snow
5:54 PM 12.0 °F -6.0 °F 3.0 °F 67% 29.77 in 1.0 mi WNW 19.6 mph 33.4 mph 0.00 in   Overcast
6:08 PM 10.9 °F -4.7 °F 1.9 °F 67% 29.69 in 3.0 mi WNW 13.8 mph 31.1 mph 0.00 in   Haze
6:22 PM 10.9 °F -8.8 °F 1.0 °F 64% 29.71 in 2.0 mi WNW 23.0 mph 33.4 mph 0.00 in   Haze
6:34 PM 10.9 °F -7.5 °F 1.0 °F 64% 29.72 in 3.0 mi WNW 19.6 mph 33.4 mph 0.00 in Snow Blowing Snow
6:42 PM 10.9 °F -9.9 °F 1.0 °F 64% 29.72 in 2.0 mi West 26.5 mph 34.5 mph 0.00 in   Haze
6:50 PM 10.4 °F -6.6 °F 1.4 °F 67% 29.73 in 1.5 mi WNW 16.1 mph 39.1 mph 0.00 in Snow Blowing Snow
6:54 PM 10.9 °F -7.0 °F 1.0 °F 64% 29.82 in 3.0 mi West 18.4 mph 27.6 mph 0.00 in   Haze
7:54 PM 10.0 °F -8.1 °F 1.0 °F 67% 29.87 in 7.0 mi WNW 18.4 mph 26.5 mph N/A   Clear
8:21 PM 10.0 °F -8.1 °F -0.0 °F 64% 29.81 in 6.0 mi West 18.4 mph 28.8 mph N/A   Haze
8:54 PM 10.0 °F -1.9 °F -0.0 °F 64% 29.94 in 10.0 mi West 8.1 mph 20.7 mph N/A   Clear
9:54 PM 10.0 °F -7.1 °F 1.0 °F 67% 29.97 in 10.0 mi West 16.1 mph 24.2 mph N/A   Clear
10:54 PM 10.0 °F -1.9 °F 1.9 °F 70% 30.00 in 10.0 mi WNW 8.1 mph 17.3 mph N/A   Clear
11:54 PM 10.0 °F -2.9 °F 1.9 °F 70% 30.03 in 10.0 mi West 9.2 mph - N/A   Scattered Clouds